Location: *
(37.5724°S, 58.0067°E)
Time: 11:41:45
(UTC+00:00)

USA 229 DEB - Pass Details

Date: 03 December 2021
Orbit: 943 x 1269 km, 63.4° (Epoch: 14 January)

Event Time Altitude Azimuth Distance (km) Brightness Sun altitude
Rises 19:35:52 0° 265° (W) 4,172 6.9 -30.0°
Reaches altitude 10° 19:40:21 10° 242° (WSW) 3,157 6.5 -30.1°
Maximum altitude 19:44:18 15° 210° (SSW) 2,765 6.5 -30.1°
Drops below altitude 10° 19:48:07 10° 178° (S) 3,045 7.0 -30.2°
Sets 19:52:21 0° 155° (SSE) 3,933 7.6 -30.2°
